Probability
0 0 0 1 1 1 0 0 0 0 0 1 1 1 0 0 0 0 0 0 0 0 0 0 0 0 0 0 0 0 0 0 0 0 0 0 0 0 0 0 0 0 0
0 0 0 0 0 0 0 0 0 0 0 0 0 0 0 0 0 0 0 0 0 0 0 0 0 0 0 0 0 0 0 0 0 0 0 0 0 0 0 0 0 0 0
0 0 0 0 0 0 0 0 0 0 0 0 0 0 0 0 0 0 0 0 0 0 0 0 0 0 0 0 0 0 0 0 0 0 0 0 0 0 0 0 0 0 0
0 0 0 0 0 0 0 0 0 0 0 0 0 0 0 0 0 0 0 0 0 0 0 0 0 0 0 0 0 0 0 0 0 0 0 0 0 0 0 0 0 0 0
0 0 0 1 1 1 1 0 0 0 0 0 0 0 0 0 0 0 0 0 0 0 0 0 0 0 0 0 0 0 0 0 0 0 0 0 0 0 0 0 0 0 0
0 0 0 1 2 3 2 1 0 0 0 0 0 0 0 0 0 0 0 0 0 0 0 0 0 0 0 0 0 0 0 0 0 0 0 0 0 0 0 0 0 0 0
0 0 0 1 3 3 3 2 1 0 0 0 0 0 0 0 0 0 0 0 0 0 0 0 0 0 0 0 0 0 0 0 0 0 0 0 0 0 0 0 0 0 0
1 0 0 2 3 3 3 2 1 0 0 0 0 0 0 0 0 0 0 0 0 0 0 0 0 0 0 0 0 0 0 0 0 0 0 0 0 0 0 0 0 0 0
2 1 1 2 3 3 3 2 1 0 0 0 0 0 0 0 0 0 0 0 0 0 0 0 0 0 0 0 0 0 0 0 0 0 0 0 0 0 0 0 0 0 0
3 3 2 3 3 3 3 1 0 0 0 0 0 0 0 0 0 0 0 0 0 0 0 0 0 0 0 1 1 0 0 0 0 0 0 0 0 0 0 0 0 0 0
3 3 4 3 3 3 3 1 1 0 0 0 0 0 0 0 0 0 0 0 0 0 0 0 0 0 0 1 1 0 0 0 0 0 0 0 0 0 0 0 0 0 0
3 4 4 4 3 3 3 3 2 1 1 1 0 0 0 0 0 0 0 0 0 0 0 0 0 0 0 1 1 0 0 0 0 0 0 0 0 0 0 0 0 0 0
2 3 3 3 3 3 3 3 3 3 2 2 1 0 0 0 0 0 1 1 0 0 0 1 1 0 0 0 0 0 0 0 0 0 0 0 0 0 0 0 0 0 0
1 1 1 1 2 3 3 3 3 4 3 2 1 0 0 0 0 0 1 2 1 0 1 2 1 1 0 0 0 0 0 0 0 0 0 0 0 0 0 0 1 1 1
0 0 0 0 1 3 3 3 4 4 3 2 1 0 0 1 1 0 1 2 1 1 2 3 2 1 1 1 0 0 0 0 0 0 1 1 1 0 0 0 1 3 3
0 0 0 0 1 2 3 3 3 4 3 2 0 0 0 1 2 1 2 3 2 1 2 3 3 2 2 1 1 1 0 0 0 0 1 2 2 1 0 0 1 3 4
0 0 0 0 1 2 3 3 3 3 2 2 1 0 1 2 2 1 2 3 2 1 1 2 3 3 3 3 2 1 1 1 0 0 0 1 1 1 1 0 0 2 4
0 1 1 0 1 2 3 4 4 2 1 1 1 1 1 1 1 1 2 2 1 0 0 1 1 3 3 3 4 3 3 2 1 0 0 0 0 1 1 1 1 1 2
1 2 2 1 1 2 3 4 3 1 0 1 1 2 2 2 2 2 2 1 0 0 0 1 2 4 4 4 5 5 4 2 1 0 0 0 0 0 1 1 2 2 2
2 4 5 4 3 3 2 2 1 1 1 1 2 2 3 3 3 3 3 1 1 1 1 2 4 4 4 4 5 4 3 2 0 0 0 0 0 0 0 2 3 3 3
4 7 8 7 6 4 2 0 0 0 1 1 1 1 3 4 4 4 3 2 2 2 2 4 5 4 3 4 5 4 2 1 1 0 0 0 0 0 0 1 3 4 5
7 9 9 8 7 6 4 2 1 2 2 1 1 1 2 4 5 5 5 4 4 5 5 6 7 5 2 4 5 4 2 1 1 1 0 1 2 1 0 0 2 3 4
9 9 9 10 9 8 8 6 5 5 4 3 3 3 3 4 5 6 6 7 8 9 8 9 8 6 3 4 6 5 3 2 2 1 1 2 3 2 0 0 1 2 2
9 8 8 11 13 12 11 9 9 9 7 4 4 4 4 4 5 5 6 8 11 10 9 8 7 6 5 6 8 8 6 4 4 3 2 3 3 2 1 1 2 2 2
7 6 8 11 15 15 13 11 10 10 10 8 6 6 5 5 5 5 6 8 9 8 6 5 6 6 6 9 11 12 11 9 8 6 5 5 4 3 4 5 4 3 2
4 5 8 11 14 16 15 12 11 12 13 12 10 8 6 6 6 5 7 8 7 5 4 2 3 4 6 9 13 15 14 12 10 8 7 7 6 6 7 8 7 4 3
Wind_Speed
5 7 9 10 10 10 11 11 12 11 12 12 13 13 12 12 12 12 11 11 11 11 11 10 10 9 9 9 9 9 8 9 9 8 8 8 8 8 8 8 7 8 12
8 9 11 9 10 10 11 11 11 11 12 13 13 12 12 12 12 11 11 10 10 10 10 10 9 9 9 9 8 8 8 8 8 7 7 8 8 7 7 5 3 8 11
9 10 11 10 10 10 10 10 11 11 12 13 12 12 12 11 11 11 11 10 9 9 9 9 9 9 8 8 8 7 7 7 7 6 6 5 9 8 6 6 7 9 9
9 9 10 11 10 10 10 10 10 11 11 12 12 11 11 10 11 10 10 9 9 9 9 8 8 8 8 7 7 7 6 6 5 5 4 4 6 9 7 7 7 8 8
9 9 11 9 9 9 9 9 10 10 10 11 11 10 10 10 9 9 9 8 8 8 8 7 7 7 6 6 6 5 5 5 4 6 3 4 5 9 7 6 7 7 8
10 10 12 8 9 9 9 9 9 9 10 10 10 10 9 8 8 8 8 7 7 6 6 6 6 5 5 4 4 4 4 3 7 3 4 3 5 9 7 6 7 7 7
9 9 12 9 8 8 8 8 9 9 8 8 8 8 8 8 7 7 6 6 6 5 5 5 4 4 4 3 3 3 3 3 5 2 3 4 7 8 6 6 6 6 7
9 9 11 10 8 8 7 7 7 8 8 8 7 7 6 6 6 6 5 5 5 4 4 4 3 3 3 3 3 3 3 6 4 2 2 4 9 6 5 6 6 6 6
8 8 8 10 9 8 7 7 6 6 6 6 6 5 5 5 5 5 4 4 4 4 3 3 3 3 3 3 2 2 3 5 5 2 2 3 8 5 5 5 6 6 6
7 7 7 7 7 7 8 7 6 6 5 5 5 4 4 5 6 6 6 5 4 3 3 3 3 3 3 3 3 3 4 7 5 3 2 6 8 5 5 5 6 6 7
6 5 6 7 6 5 5 7 6 6 5 5 6 5 3 3 4 5 5 4 3 3 3 3 3 3 4 6 5 5 7 5 2 1 1 9 7 6 6 6 7 7 7
8 7 5 5 5 5 4 5 3 3 4 2 3 3 2 1 1 1 6 4 3 4 5 5 5 7 8 5 8 9 4 3 3 2 4 8 6 6 6 7 7 7 7
8 7 6 5 4 4 3 3 2 2 3 2 3 2 1 0 1 2 2 4 4 5 3 5 6 4 2 1 2 2 2 3 2 2 5 8 6 7 7 7 7 7 7
7 7 6 5 4 3 2 2 2 2 2 1 3 1 1 0 1 1 0 0 1 1 0 1 1 1 1 2 3 2 3 3 1 1 4 8 7 7 7 8 8 8 8
7 7 7 6 5 3 3 2 3 2 2 3 1 1 1 1 0 0 0 1 1 0 1 1 1 1 2 3 3 3 3 3 3 3 3 8 8 8 8 8 9 9 9
7 7 6 7 7 5 4 3 2 2 2 2 2 2 1 1 1 1 1 1 1 0 1 1 1 1 2 1 3 3 4 3 3 3 2 6 10 9 8 8 9 9 9
8 7 7 7 7 7 6 5 3 3 3 2 2 2 2 2 1 2 1 2 1 1 1 2 2 2 2 2 2 3 3 3 2 3 4 3 6 10 10 9 9 9 10
8 8 7 7 7 7 6 5 3 3 2 2 2 2 2 2 2 2 2 1 1 2 1 1 2 2 1 2 1 2 2 2 3 4 4 4 3 4 9 10 9 9 9
8 8 8 7 7 6 6 5 4 3 3 3 2 2 2 3 3 3 2 1 2 2 2 2 0 2 1 2 2 3 3 3 3 4 4 4 4 4 4 9 10 9 10
8 8 8 8 7 6 5 5 4 4 4 3 3 2 3 3 3 3 2 2 3 2 2 1 2 2 2 3 3 2 3 3 3 3 4 3 3 4 4 4 6 9 11
9 9 9 9 8 7 5 5 5 4 4 4 3 3 4 4 3 3 3 1 3 2 2 3 3 3 3 2 3 2 3 4 3 3 3 3 2 3 3 3 4 3 6
10 10 9 9 9 8 6 5 4 4 4 3 3 2 3 3 3 3 3 3 2 2 2 3 3 3 3 2 3 2 2 3 3 3 3 3 2 2 3 3 3 3 4
11 10 9 9 9 9 7 6 4 4 4 4 3 2 3 3 3 3 3 3 3 3 2 3 3 4 3 2 3 3 3 1 1 3 2 2 2 2 3 2 4 3 4
10 10 10 9 9 8 8 7 7 6 5 4 3 2 2 2 3 3 3 3 3 3 2 4 2 2 3 3 2 3 4 3 3 2 3 2 2 3 3 3 3 2 3
9 8 8 8 8 8 8 8 7 7 5 3 3 2 2 2 2 2 1 2 2 3 2 2 1 3 2 3 3 2 2 3 5 4 3 2 2 2 2 3 2 2 2
8 8 8 8 8 8 8 7 7 6 5 4 3 3 3 2 2 1 1 1 2 2 2 2 2 2 2 3 3 3 3 2 3 3 3 4 3 2 2 2 2 2 2
Wind_Direction
104 101 97 97 99 101 104 105 111 114 119 124 125 123 124 122 120 117 116 117 117 115 114 113 112 112 114 111 109 110 113 115 114 113 113 112 112 114 119 129 153 125 117
115 111 103 100 101 101 103 104 106 109 117 124 127 126 126 125 123 121 119 118 117 116 115 113 113 114 113 111 111 113 114 116 117 120 130 133 124 121 124 123 88 104 124
117 115 112 101 103 101 100 102 106 107 112 120 124 127 126 124 122 122 122 120 118 116 115 114 113 113 111 109 109 112 114 117 122 138 183 155 126 125 128 125 115 122 130
116 114 105 107 106 104 103 105 107 110 116 120 123 126 125 125 126 126 124 121 118 116 116 115 114 113 112 110 111 115 118 120 134 192 196 116 120 120 129 133 135 139 140
116 113 106 113 111 109 107 106 107 108 115 120 122 123 124 126 128 127 125 122 117 117 116 116 118 117 116 115 116 118 123 131 174 223 119 101 105 121 135 139 144 147 146
124 120 110 114 110 109 106 104 104 104 110 116 120 122 125 126 127 128 125 122 119 118 118 121 122 121 122 123 124 124 131 164 222 174 119 127 113 126 139 145 147 152 151
125 118 116 115 112 111 110 108 105 104 106 111 117 123 126 129 127 127 129 131 129 128 126 124 128 129 133 137 143 147 159 219 247 134 131 130 103 123 146 153 153 153 155
125 123 122 124 116 115 113 112 109 108 109 112 116 123 129 129 132 135 140 142 140 135 132 132 133 138 143 149 156 164 188 246 216 158 148 115 108 140 163 167 166 163 163
129 126 128 134 134 131 118 113 111 109 109 109 112 119 127 134 138 147 153 156 153 148 150 156 153 157 162 172 178 181 206 254 261 170 160 116 123 153 174 177 175 175 175
134 133 132 130 129 139 134 123 116 113 111 112 116 115 124 146 156 163 171 158 165 165 168 173 174 178 183 192 196 196 214 238 233 193 170 120 138 169 187 188 184 183 183
146 146 137 135 138 135 128 128 141 139 131 150 144 141 181 171 147 165 120 131 160 168 176 181 188 195 203 192 194 207 225 235 209 219 131 114 153 185 199 200 196 191 189
159 156 146 146 144 138 137 130 135 137 122 137 102 122 141 110 114 123 122 160 174 185 192 187 198 208 224 195 180 204 223 227 226 204 125 134 171 197 206 205 200 195 194
161 162 157 151 146 144 142 130 110 109 117 131 105 96 97 172 163 154 142 168 178 192 193 173 202 215 217 217 239 213 247 249 230 217 132 150 181 202 209 206 202 203 203
166 168 160 154 160 164 145 129 140 138 134 124 118 160 128 102 333 60 143 151 190 165 173 233 200 206 238 236 236 231 236 250 240 236 135 156 188 208 213 210 208 209 210
175 176 169 168 169 172 173 197 150 155 167 153 153 149 210 196 255 45 59 301 283 161 189 206 222 202 230 224 237 222 240 247 243 243 154 164 189 206 213 215 212 212 214
184 181 174 181 177 182 185 195 172 177 177 193 177 170 222 240 239 261 230 257 267 287 343 289 251 244 252 254 249 241 245 236 219 241 226 172 185 200 211 215 214 212 212
185 184 183 186 183 188 196 200 189 195 183 191 178 180 230 251 251 266 262 244 225 227 215 233 242 244 243 238 237 245 242 238 230 235 243 230 189 188 201 212 217 215 214
189 187 192 194 186 188 196 206 207 203 195 206 207 196 221 260 250 261 259 262 258 254 234 225 238 252 261 267 249 247 238 223 230 230 233 227 230 206 189 197 213 217 217
195 191 192 199 199 197 194 202 213 206 220 229 223 219 211 239 241 256 273 297 254 247 255 257 247 275 265 272 248 222 232 228 228 230 235 234 226 232 222 176 198 213 216
197 197 197 196 202 205 200 202 213 216 222 226 228 223 236 238 235 264 258 254 261 245 249 271 273 262 270 260 272 267 248 235 227 222 238 228 222 228 231 221 203 200 206
196 198 201 204 194 199 203 208 204 209 218 219 224 220 233 242 235 248 279 261 262 251 261 262 262 247 252 250 255 246 232 219 218 210 228 245 234 237 236 230 241 235 198
193 195 198 203 201 204 201 211 216 226 231 231 248 236 244 239 239 226 241 259 266 268 255 259 256 269 264 250 266 259 235 203 211 215 218 222 249 239 231 224 232 233 252
194 195 200 201 202 208 204 209 209 210 236 229 232 229 245 246 246 270 253 263 271 268 254 256 252 248 260 259 262 276 271 262 245 206 224 227 238 251 247 238 233 229 237
196 193 198 198 201 203 205 214 215 220 227 231 232 226 227 234 248 249 252 261 272 280 266 254 248 265 259 261 241 261 284 308 278 247 210 206 221 236 258 267 258 223 230
193 191 190 193 198 202 210 213 219 228 230 230 223 213 238 216 236 263 267 259 260 273 283 291 293 278 262 269 269 250 244 239 248 262 267 258 243 235 237 255 281 264 245
188 188 185 184 192 196 204 211 217 226 223 222 223 216 222 207 208 224 245 263 266 274 265 262 267 254 279 289 287 284 269 263 265 266 266 259 259 244 244 253 256 255 250